Location: Palomar Mountain Lodge
(33.3110°N, 116.8495°W)
Time: 05:37:28
(UTC-07:00)

MOZHAYETS 4 - Pass Details

Date: 17 April 2026
Orbit: 642 x 659 km, 98.3° (Epoch: 12 May)

Event Time Altitude Azimuth Distance (km) Brightness Sun altitude
Rises 19:57:12 0° 347° (NNW) 2,950 11.5 -8.3°
Reaches altitude 10° 20:00:39 10° 319° (NW) 2,037 11.3 -9.0°
Maximum altitude 20:02:29 12° 294° (WNW) 1,875 11.6 -9.4°
Drops below altitude 10° 20:04:19 10° 269° (W) 2,035 11.5 -9.7°
Sets 20:07:45 0° 241° (WSW) 2,943 11.7 -10.4°
